TimeEDT,TemperatureF,Dew PointF,Humidity,Sea Level PressureIn,VisibilityMPH,Wind Direction,Wind SpeedMPH,Gust SpeedMPH,PrecipitationIn,Events,Conditions,WindDirDegrees,DateUTC
12:15 AM,45.1,43.3,93,29.88,2.0,Calm,Calm,-,0.01,Rain,Light Rain,0,2013-03-19 04:15:00
12:35 AM,45.1,43.3,93,29.87,1.8,Calm,Calm,-,0.01,,Overcast,0,2013-03-19 04:35:00
12:55 AM,45.1,43.3,93,29.86,1.0,South,4.6,-,0.01,,Overcast,170,2013-03-19 04:55:00
1:15 AM,45.1,43.3,93,29.85,0.8,Calm,Calm,-,N/A,,Overcast,0,2013-03-19 05:15:00
1:35 AM,45.1,43.3,93,29.85,1.2,Calm,Calm,-,N/A,,Overcast,0,2013-03-19 05:35:00
1:55 AM,45.1,43.3,93,29.86,1.0,Calm,Calm,-,N/A,Rain,Light Rain,0,2013-03-19 05:55:00
2:15 AM,44.6,42.8,93,29.86,2.5,NNW,4.6,-,N/A,Rain,Rain,330,2013-03-19 06:15:00
2:35 AM,42.8,41.0,93,29.86,3.0,NNW,4.6,-,0.01,Rain,Light Rain,340,2013-03-19 06:35:00
2:55 AM,42.8,41.0,93,29.83,2.0,North,5.8,-,0.01,Rain,Light Rain,10,2013-03-19 06:55:00
3:15 AM,42.8,41.0,93,29.84,2.0,Calm,Calm,-,N/A,,Light Drizzle,0,2013-03-19 07:15:00
3:35 AM,41.5,39.7,93,29.84,1.5,Calm,Calm,-,N/A,,Overcast,0,2013-03-19 07:35:00
3:55 AM,40.1,38.3,93,29.83,1.5,North,3.5,-,N/A,,Overcast,350,2013-03-19 07:55:00
4:15 AM,40.1,38.3,93,29.82,1.2,Calm,Calm,-,N/A,,Overcast,0,2013-03-19 08:15:00
4:35 AM,39.6,37.8,93,29.81,1.0,NNW,3.5,-,N/A,,Overcast,340,2013-03-19 08:35:00
4:55 AM,39.4,37.6,93,29.81,0.8,North,4.6,-,N/A,,Overcast,10,2013-03-19 08:55:00
5:15 AM,38.8,37.0,93,29.82,1.0,Calm,Calm,-,N/A,,Overcast,0,2013-03-19 09:15:00
5:35 AM,38.8,37.0,93,29.83,1.0,Calm,Calm,-,N/A,,Overcast,0,2013-03-19 09:35:00
5:55 AM,38.8,37.0,93,29.83,0.8,Calm,Calm,-,N/A,Rain,Light Rain,0,2013-03-19 09:55:00
6:15 AM,38.8,37.0,93,29.83,1.0,Calm,Calm,-,N/A,Rain,Light Rain,0,2013-03-19 10:15:00
6:35 AM,38.8,37.0,93,29.83,1.5,Calm,Calm,-,N/A,,Overcast,0,2013-03-19 10:35:00
6:55 AM,38.8,37.0,93,29.84,1.2,Calm,Calm,-,N/A,,Overcast,0,2013-03-19 10:55:00
7:15 AM,38.8,37.0,93,29.83,1.0,SSE,3.5,-,N/A,,Overcast,160,2013-03-19 11:15:00
7:35 AM,38.8,37.0,93,29.82,1.0,Calm,Calm,-,N/A,,Overcast,0,2013-03-19 11:35:00
7:55 AM,39.7,37.9,93,29.82,1.5,Calm,Calm,-,N/A,,Overcast,0,2013-03-19 11:55:00
8:15 AM,40.1,38.3,93,29.82,1.5,Calm,Calm,-,N/A,,Overcast,0,2013-03-19 12:15:00
8:35 AM,41.0,39.2,93,29.83,1.0,Calm,Calm,-,N/A,,Overcast,0,2013-03-19 12:35:00
8:55 AM,42.8,41.0,93,29.84,1.2,Calm,Calm,-,N/A,,Overcast,0,2013-03-19 12:55:00
9:15 AM,45.0,43.2,93,29.84,1.8,Calm,Calm,-,N/A,,Overcast,0,2013-03-19 13:15:00
9:35 AM,45.1,43.3,93,29.85,2.5,Calm,Calm,-,N/A,,Overcast,0,2013-03-19 13:35:00
9:55 AM,45.1,43.3,93,29.86,4.0,Calm,Calm,-,N/A,,Overcast,0,2013-03-19 13:55:00
10:15 AM,45.1,43.3,93,29.87,5.0,Calm,Calm,-,N/A,,Overcast,0,2013-03-19 14:15:00
10:35 AM,45.1,43.3,93,29.87,10.0,WSW,3.5,-,N/A,,Overcast,250,2013-03-19 14:35:00
10:55 AM,45.1,43.0,92,29.87,10.0,West,3.5,-,N/A,,Mostly Cloudy,280,2013-03-19 14:55:00
11:15 AM,47.5,44.6,90,29.87,10.0,West,5.8,-,N/A,,Scattered Clouds,260,2013-03-19 15:15:00
11:35 AM,50.0,45.5,85,29.87,10.0,WNW,5.8,-,N/A,,Clear,300,2013-03-19 15:35:00
11:55 AM,52.0,45.7,79,29.88,10.0,WNW,4.6,-,N/A,,Clear,290,2013-03-19 15:55:00
12:15 PM,52.9,44.4,73,29.86,10.0,West,4.6,-,N/A,,Clear,270,2013-03-19 16:15:00
12:35 PM,56.3,42.6,60,29.86,10.0,West,5.8,-,N/A,,Clear,280,2013-03-19 16:35:00
12:55 PM,57.0,38.8,51,29.85,10.0,WNW,6.9,-,N/A,,Clear,290,2013-03-19 16:55:00
1:15 PM,58.1,36.7,45,29.85,10.0,WNW,5.8,-,N/A,,Clear,290,2013-03-19 17:15:00
1:35 PM,58.5,34.2,40,29.84,10.0,WNW,5.8,-,N/A,,Clear,290,2013-03-19 17:35:00
1:55 PM,60.1,33.4,37,29.83,10.0,Calm,Calm,-,N/A,,Clear,0,2013-03-19 17:55:00
2:15 PM,61.5,32.0,33,29.83,10.0,WNW,6.9,-,N/A,,Clear,290,2013-03-19 18:15:00
2:35 PM,61.3,30.7,32,29.82,10.0,WNW,5.8,18.4,N/A,,Clear,290,2013-03-19 18:35:00
2:55 PM,64.6,34.5,33,29.82,10.0,WNW,3.5,-,N/A,,Clear,290,2013-03-19 18:55:00
3:15 PM,65.3,33.6,31,29.82,10.0,WNW,8.1,-,N/A,,Clear,290,2013-03-19 19:15:00
3:35 PM,65.3,31.8,29,29.81,10.0,WNW,4.6,-,N/A,,Clear,290,2013-03-19 19:35:00
3:55 PM,65.3,31.3,28,29.81,10.0,West,4.6,-,N/A,,Clear,260,2013-03-19 19:55:00
4:15 PM,65.3,29.3,26,29.81,10.0,West,3.5,-,N/A,,Clear,270,2013-03-19 20:15:00
4:35 PM,65.3,30.2,27,29.81,10.0,NW,5.8,-,N/A,,Clear,320,2013-03-19 20:35:00
4:55 PM,65.3,29.3,26,29.82,10.0,NW,6.9,-,N/A,,Clear,310,2013-03-19 20:55:00
5:15 PM,65.3,29.1,26,29.82,10.0,WSW,4.6,-,N/A,,Clear,250,2013-03-19 21:15:00
5:35 PM,65.3,25.2,22,29.83,10.0,WSW,4.6,-,N/A,,Clear,250,2013-03-19 21:35:00
5:55 PM,65.3,24.3,21,29.83,10.0,Calm,Calm,-,N/A,,Clear,0,2013-03-19 21:55:00
6:15 PM,65.3,21.7,19,29.83,10.0,Calm,Calm,-,N/A,,Clear,0,2013-03-19 22:15:00
6:35 PM,62.4,25.2,24,29.84,10.0,Calm,Calm,-,N/A,,Clear,0,2013-03-19 22:35:00
6:55 PM,59.0,24.6,27,29.84,10.0,Calm,Calm,-,N/A,,Clear,0,2013-03-19 22:55:00
7:15 PM,56.1,28.9,35,29.85,10.0,Calm,Calm,-,N/A,,Clear,0,2013-03-19 23:15:00
7:55 PM,53.6,28.4,38,29.88,10.0,Calm,Calm,-,N/A,,Clear,0,2013-03-19 23:55:00
8:15 PM,57.6,15.6,19,29.89,10.0,Calm,Calm,-,N/A,,Clear,0,2013-03-20 00:15:00
8:35 PM,56.5,14.0,19,29.90,10.0,Calm,Calm,-,N/A,,Clear,0,2013-03-20 00:35:00
8:55 PM,55.8,15.6,21,29.90,10.0,Calm,Calm,-,N/A,,Clear,0,2013-03-20 00:55:00
9:35 PM,53.1,17.2,24,29.92,10.0,Calm,Calm,-,N/A,,Clear,0,2013-03-20 01:35:00
9:55 PM,55.0,15.1,21,29.94,10.0,Calm,Calm,-,N/A,,Clear,0,2013-03-20 01:55:00
10:15 PM,55.0,16.2,22,29.95,10.0,Calm,Calm,-,N/A,,Clear,0,2013-03-20 02:15:00
10:35 PM,53.8,13.6,20,29.96,10.0,NW,3.5,-,N/A,,Clear,320,2013-03-20 02:35:00
10:55 PM,52.7,9.9,18,29.97,10.0,WNW,3.5,-,N/A,,Clear,300,2013-03-20 02:55:00
11:15 PM,52.7,7.2,16,29.98,10.0,WNW,3.5,-,N/A,,Clear,290,2013-03-20 03:15:00
11:35 PM,52.7,2.8,13,29.99,10.0,WNW,5.8,-,N/A,,Clear,300,2013-03-20 03:35:00
11:55 PM,52.0,-3.1,10,29.99,10.0,WNW,4.6,-,N/A,,Clear,300,2013-03-20 03:55:00